GEFSSE_con_prob3kmehi_000.txt.gz
EHI
0 0 0 0 0 0 0 0 0 0 0 0 0 0 0 0 0 0 0 0 0 0 0 0 0 0 0 0 0 0 0 0 0 0 0 0 0 0 0 0 0 0 0
0 0 0 0 0 0 0 0 0 0 0 0 0 0 0 0 0 0 0 0 0 0 0 0 0 0 0 0 0 0 0 0 0 0 0 0 0 0 0 0 0 0 0
0 0 0 0 0 0 0 0 0 0 0 0 0 0 0 0 0 0 0 0 0 0 0 0 0 0 0 0 0 0 0 0 0 0 0 0 0 0 0 0 0 0 0
0 0 0 0 0 0 0 0 0 0 0 0 0 0 0 0 0 0 0 0 0 0 0 0 0 0 0 0 0 0 0 0 0 0 0 0 1 2 1 0 0 0 0
0 0 0 0 0 0 0 0 0 0 0 0 0 0 0 0 0 0 0 0 0 0 0 0 0 0 0 0 0 0 0 0 0 0 0 0 5 10 7 1 0 0 0
0 0 0 0 0 0 0 0 0 0 0 0 0 0 0 0 0 0 0 0 0 0 0 0 0 0 0 0 0 0 0 0 0 0 0 1 14 27 19 4 1 1 2
0 0 0 0 0 0 0 0 0 0 0 0 0 0 0 0 0 0 0 0 0 0 0 0 0 0 0 0 0 0 0 0 0 0 0 2 21 37 24 7 6 7 6
0 0 0 0 0 0 0 0 0 0 0 0 0 0 0 0 0 0 0 0 0 0 0 0 0 0 0 0 0 0 0 0 0 0 0 5 21 27 16 7 13 18 19
0 0 0 0 0 0 0 0 0 0 0 0 0 0 1 0 0 0 0 0 0 0 0 0 0 0 0 0 0 0 0 0 0 0 0 10 24 20 7 3 11 25 32
0 0 0 0 0 0 0 0 0 0 0 0 0 1 2 1 0 0 0 0 0 0 0 0 0 0 0 0 0 0 0 0 0 0 2 17 32 22 4 0 4 15 26
0 0 0 0 0 0 0 0 0 0 0 0 0 1 2 1 0 0 0 0 0 0 0 0 0 0 0 0 0 0 0 0 0 0 5 20 26 15 3 0 1 5 11
0 0 0 0 0 0 0 0 0 0 0 0 0 0 0 0 0 0 0 0 0 0 0 0 0 0 0 0 0 0 0 0 0 0 6 15 13 5 1 0 0 3 7
0 0 0 0 0 0 0 0 0 0 0 0 0 0 0 0 0 0 0 0 0 0 0 0 0 0 0 0 0 0 0 0 0 0 6 11 7 1 0 0 0 3 7
0 0 0 0 0 0 0 0 0 0 0 0 0 0 0 0 0 0 0 0 0 0 0 0 0 0 0 0 0 0 0 0 0 0 5 11 8 2 0 0 0 1 3
0 0 0 0 0 0 0 0 0 0 0 0 0 0 0 0 0 0 0 0 0 0 0 0 0 0 0 0 0 0 0 0 0 0 2 8 9 4 0 0 0 0 0
0 0 0 0 0 0 0 0 0 0 0 0 0 0 0 0 0 0 0 0 0 0 0 0 0 0 0 0 0 0 0 0 0 0 0 4 7 4 0 0 0 0 0
0 0 0 0 0 0 0 0 0 0 0 0 0 0 0 0 0 0 0 0 0 0 0 0 0 0 0 0 0 0 0 0 0 0 0 2 3 2 0 0 0 0 0
3 3 2 0 0 0 0 0 0 0 0 0 0 0 0 0 0 0 0 0 0 0 0 0 0 0 0 0 0 0 0 0 0 0 0 0 0 0 0 0 0 0 0
7 8 4 0 0 0 0 2 4 6 5 4 4 3 1 0 0 0 0 0 0 0 0 0 0 0 0 0 0 0 0 0 0 0 0 0 0 0 0 0 0 0 0
11 9 5 3 4 6 6 8 11 12 9 6 7 6 2 0 0 0 0 0 0 0 0 0 0 0 0 0 0 0 0 0 0 0 0 0 0 0 0 0 0 0 0
32 25 16 12 14 17 17 17 17 11 5 4 4 8 12 13 8 3 0 0 0 0 0 0 0 1 1 0 0 0 0 0 0 0 0 0 0 0 0 0 0 0 0
51 39 25 19 19 20 18 20 20 12 3 1 1 10 26 38 35 20 5 0 0 0 0 0 1 3 2 1 0 0 0 0 0 0 0 0 0 0 0 0 0 0 0
32 24 16 14 15 12 8 12 16 13 9 6 4 10 24 47 62 49 18 2 0 0 0 0 2 4 4 3 1 0 0 0 0 0 0 0 0 0 0 0 0 0 0
6 4 3 5 6 3 1 2 6 8 9 9 7 7 14 37 62 55 26 7 1 1 0 0 2 5 6 4 2 1 0 0 0 0 0 0 0 0 0 0 0 0 0
0 0 0 1 1 0 0 0 1 2 4 4 5 5 9 24 36 32 20 11 6 5 2 1 2 7 8 5 1 0 0 0 0 0 0 0 0 0 0 0 0 0 0
0 0 0 0 0 0 0 0 0 0 0 0 1 3 5 11 15 13 11 11 11 8 5 2 2 7 8 4 0 0 0 0 0 0 0 0 0 0 0 0 0 0 0

GEFSSE_con_prob3kmehi_006.txt.gz
EHI
1 0 0 0 0 0 0 0 0 0 0 0 0 0 0 0 0 0 0 0 0 0 0 0 0 0 0 0 0 0 0 0 0 0 0 0 0 0 0 0 1 0 0
1 0 0 0 0 0 0 0 0 0 0 0 0 0 0 0 0 0 0 0 0 0 0 0 0 0 0 0 0 0 0 0 0 0 0 0 0 0 0 0 1 0 0
1 0 0 0 0 0 0 0 0 0 0 0 0 0 0 0 0 0 0 0 0 0 0 0 0 0 0 0 0 0 0 0 0 0 0 0 0 0 0 0 0 0 0
0 0 0 0 0 0 0 0 0 0 0 0 0 0 0 0 0 0 0 0 0 0 0 0 0 0 0 0 0 0 0 0 0 0 0 0 0 0 0 0 0 0 0
0 0 0 0 0 0 0 0 0 0 0 0 0 0 0 0 0 0 0 0 0 0 0 0 0 0 0 0 0 0 0 0 0 0 0 0 0 0 0 0 0 0 0
2 1 0 0 0 0 0 0 0 0 0 0 0 0 0 0 0 0 0 0 0 0 0 0 0 0 0 0 0 0 0 0 0 0 0 4 9 7 2 0 0 0 0
7 3 0 0 0 0 0 0 0 0 0 0 0 0 0 0 0 0 0 0 0 0 0 0 0 0 0 0 0 0 0 0 0 0 0 14 34 32 12 2 0 0 0
19 8 0 0 0 0 0 0 0 0 0 0 0 0 0 0 0 0 0 0 0 0 0 0 0 0 0 0 0 0 0 0 0 0 1 23 60 67 38 15 6 3 1
24 9 0 0 0 0 0 0 0 0 0 0 0 0 0 0 0 0 0 0 0 0 0 0 0 0 0 0 0 0 0 0 0 0 4 32 74 88 64 35 20 13 9
12 6 0 0 0 0 0 0 0 0 0 0 0 0 0 0 0 0 0 0 0 0 0 0 0 0 0 0 0 0 0 0 0 0 10 44 81 90 69 43 30 27 24
2 2 3 2 0 0 0 0 0 0 0 0 0 0 0 0 0 0 3 7 5 1 0 0 0 0 0 0 0 0 0 0 0 0 18 57 86 84 59 35 29 32 33
1 3 8 9 4 0 0 0 0 4 7 4 4 6 4 0 0 1 11 21 13 2 0 0 0 0 0 0 0 0 0 0 0 1 24 67 92 81 55 32 23 23 24
1 1 9 14 7 0 0 1 1 10 19 13 12 16 7 0 0 4 22 31 16 1 0 0 0 0 0 0 0 0 0 0 0 1 22 60 80 69 48 27 15 10 9
0 1 8 13 7 0 2 3 2 11 19 16 18 18 7 2 3 10 28 31 13 2 2 1 0 0 0 0 0 0 0 0 0 1 12 32 44 39 26 13 5 2 2
0 2 10 14 8 2 3 6 4 8 12 12 13 13 6 8 17 27 36 29 11 4 6 3 1 0 0 0 0 0 0 0 0 1 4 9 14 14 8 2 0 0 0
0 6 17 22 18 11 7 6 5 8 14 10 7 10 11 19 38 55 56 38 14 5 9 7 2 1 1 0 0 0 0 0 0 0 0 1 5 8 6 2 0 0 0
16 24 31 29 33 38 31 20 12 13 21 19 11 16 27 35 54 76 77 56 30 20 18 11 4 1 1 0 0 0 1 2 1 0 0 1 3 6 5 2 1 1 0
52 58 51 38 51 72 70 51 31 25 35 37 26 33 52 57 64 80 83 70 59 55 38 17 6 3 1 0 0 1 3 4 2 0 0 0 2 5 5 4 4 2 1
82 85 74 60 72 92 94 78 55 47 56 60 51 54 70 74 69 74 76 74 78 82 63 34 19 13 5 1 1 2 4 6 4 1 0 0 4 8 7 4 4 3 2
94 96 92 87 91 98 97 86 71 67 75 79 75 71 74 73 68 66 67 69 74 79 72 53 37 25 12 5 2 1 2 7 11 8 2 1 4 8 5 2 2 1 1
98 99 99 98 98 99 96 88 80 81 87 90 87 81 71 58 50 52 59 62 56 54 56 52 39 25 16 9 2 0 0 8 17 13 4 1 2 3 2 0 0 0 0
99 99 99 98 97 97 94 90 87 85 83 82 81 79 66 45 27 30 51 58 43 31 34 34 24 17 13 6 1 0 0 5 12 8 2 2 3 2 1 0 0 2 3
94 94 94 93 89 84 81 80 79 70 60 55 58 60 57 41 21 19 38 51 41 31 29 23 14 8 5 2 0 0 0 2 3 2 0 5 11 10 3 0 0 2 4
76 76 75 73 68 60 57 59 58 49 36 30 30 33 39 40 30 19 23 38 47 47 42 27 11 5 2 0 0 0 0 0 0 0 0 6 16 14 5 0 0 1 2
46 45 44 44 43 38 37 42 44 38 27 17 14 15 23 32 29 16 10 21 38 48 44 29 14 7 3 0 0 0 0 0 0 0 0 3 8 7 2 1 0 0 0
24 24 24 27 29 27 27 35 40 34 23 13 8 8 14 23 22 11 5 9 21 33 34 25 16 9 4 1 0 0 0 0 0 0 0 0 1 0 1 1 1 0 0

GEFSSE_con_prob3kmehi_012.txt.gz
EHI
0 0 0 0 0 0 0 0 0 0 0 0 0 0 0 0 0 0 0 0 0 0 0 0 0 0 0 0 0 0 0 0 0 0 0 0 0 0 0 0 0 0 0
0 0 0 0 0 0 0 0 0 0 0 0 0 0 0 0 0 0 0 0 0 0 0 0 0 0 0 0 0 0 0 0 0 0 0 0 0 0 1 2 1 0 0
0 0 0 0 0 0 0 0 0 0 0 0 0 0 0 0 0 0 0 0 0 0 0 0 0 0 0 0 0 0 0 0 0 0 0 0 0 0 2 5 5 3 1
0 0 0 0 0 0 0 0 0 0 0 0 0 0 0 0 0 0 0 0 0 0 0 0 0 0 0 0 0 0 0 0 0 0 0 0 0 0 1 5 7 4 1
0 0 0 0 0 0 0 0 0 0 0 0 0 0 0 0 0 0 0 0 0 0 0 0 0 0 0 0 0 0 0 0 0 0 0 0 0 0 0 2 3 3 1
0 0 0 0 0 0 0 0 0 0 0 0 0 0 0 0 0 0 0 0 0 0 0 0 0 0 0 0 0 0 0 0 0 0 0 0 0 2 3 2 0 0 0
0 0 0 0 0 0 0 0 0 0 0 0 0 0 0 0 0 0 0 0 0 0 0 0 0 0 0 0 0 0 0 0 0 0 0 0 0 5 9 5 1 1 0
0 0 0 0 0 0 0 0 0 0 1 1 0 0 0 0 0 0 0 0 0 0 0 0 0 0 0 0 0 0 0 0 0 0 0 0 0 7 15 11 4 4 3
0 0 0 0 0 0 0 0 0 1 2 2 1 0 0 0 0 0 0 0 0 0 0 0 0 0 0 0 0 0 0 0 0 0 0 0 0 11 25 22 10 7 6
0 0 0 0 0 0 0 0 0 1 2 2 1 0 0 0 0 0 0 0 0 0 0 0 0 0 0 0 0 0 0 0 0 0 0 0 1 16 39 40 20 7 4
0 0 0 0 0 0 0 0 0 0 1 1 0 0 0 0 0 0 0 0 0 0 0 0 0 0 0 0 0 0 0 0 0 0 0 0 1 16 43 50 29 9 3
0 0 0 0 0 0 0 0 0 0 0 0 0 0 0 0 0 0 0 0 0 0 0 0 1 0 0 0 0 0 0 0 0 0 0 0 0 13 38 45 27 9 3
0 0 0 0 0 0 0 0 0 0 0 0 0 0 0 0 0 0 0 0 0 0 0 0 0 0 0 0 0 0 0 0 0 0 0 0 1 10 26 28 15 4 1
0 0 0 0 0 0 0 0 0 0 0 0 0 0 0 0 0 0 0 0 0 0 0 0 0 0 0 0 0 0 0 0 0 0 0 0 1 5 11 10 4 1 0
0 0 0 0 0 0 0 0 0 0 0 0 0 0 0 0 0 0 0 0 0 0 0 0 0 0 0 0 0 0 0 0 0 0 0 0 0 1 2 1 0 0 0
2 3 3 1 0 0 0 0 0 0 0 0 0 0 0 0 0 0 0 0 0 0 0 0 0 0 0 0 0 0 0 0 0 0 0 0 0 0 0 0 0 0 0
7 13 13 5 1 1 1 0 0 0 0 0 0 0 0 0 0 0 0 0 0 0 0 0 0 0 0 0 0 0 0 0 0 0 0 0 0 0 0 0 0 0 0
17 29 30 16 6 4 2 2 2 2 2 1 0 0 0 0 0 0 0 0 0 0 0 0 0 0 0 0 0 0 0 0 0 0 0 0 0 0 0 0 0 0 0
27 41 43 31 18 9 5 4 4 4 3 1 0 0 0 0 0 0 0 0 1 1 1 0 0 0 0 0 0 0 0 0 0 0 0 0 0 0 0 0 0 0 0
36 47 52 46 38 27 16 10 5 2 2 1 0 0 0 0 0 0 0 1 1 2 1 0 0 0 0 0 0 0 0 0 0 0 0 0 0 0 0 0 0 0 0
51 57 62 64 62 55 39 23 11 5 3 1 0 0 0 0 0 0 1 1 1 1 1 0 0 0 0 0 0 0 0 0 0 0 0 0 0 0 0 0 0 0 0
70 73 75 74 70 63 51 35 22 15 8 3 0 0 0 0 0 0 0 0 0 0 0 0 0 0 0 0 0 0 0 0 0 0 0 0 0 0 0 0 0 0 0
80 79 75 64 51 43 38 33 25 16 9 2 0 0 0 0 0 0 0 0 0 0 0 0 0 0 0 0 0 0 0 0 0 0 0 0 0 0 0 0 0 0 0
75 69 57 41 28 21 20 19 14 9 4 1 0 0 0 0 0 0 0 0 0 0 0 0 0 0 0 0 0 0 0 0 0 0 0 0 0 0 0 0 0 0 0
54 45 31 19 13 10 8 6 5 2 1 0 0 0 0 0 0 0 0 0 0 0 0 0 0 0 0 0 0 0 1 0 0 0 0 0 0 0 0 0 0 0 0
33 26 15 8 5 3 2 1 1 1 0 0 0 0 0 0 0 0 0 0 0 0 0 0 0 0 0 0 0 0 1 0 0 0 0 0 0 0 0 0 0 0 0

GEFSSE_con_prob3kmehi_018.txt.gz
EHI
0 0 0 0 0 0 0 0 0 0 0 0 0 0 0 0 0 0 0 0 0 0 0 0 0 0 0 0 0 0 0 0 0 0 0 0 0 0 0 0 0 0 0
0 0 0 0 0 0 0 0 0 0 0 0 0 0 0 0 0 0 0 0 0 0 0 0 0 0 0 0 0 0 0 0 0 0 0 0 0 0 0 0 0 0 0
0 0 0 0 0 0 0 0 0 0 0 0 0 0 0 0 0 0 0 0 0 0 0 0 0 0 0 0 0 0 0 0 0 0 0 0 0 0 0 0 0 0 0
0 0 0 0 0 0 0 0 0 0 0 0 0 0 0 0 0 0 0 0 0 0 0 0 0 0 0 0 0 0 0 0 0 0 0 0 0 0 0 0 0 0 0
0 0 0 0 0 0 0 0 0 0 0 0 0 0 0 0 0 0 0 0 0 0 0 0 0 0 0 0 0 0 0 0 0 0 0 0 0 0 0 0 0 0 0
0 0 0 0 0 0 0 0 0 0 0 0 0 0 0 0 0 0 0 0 0 0 0 0 0 0 0 0 0 0 0 0 0 0 0 0 0 0 0 0 0 0 0
0 0 0 0 0 0 0 0 0 0 0 0 0 0 0 0 0 0 0 0 0 0 0 0 0 0 0 0 0 0 0 0 0 0 0 0 0 0 0 0 0 0 0
0 0 0 0 0 0 0 0 0 0 0 0 0 0 0 0 0 0 0 0 0 0 0 0 0 0 0 0 0 0 0 0 0 0 0 0 0 0 0 0 0 0 0
0 0 0 0 0 0 0 0 0 0 0 0 0 0 0 0 0 0 0 0 0 0 0 0 0 0 0 0 0 0 0 0 0 0 0 0 0 0 0 0 0 0 0
0 0 0 0 0 0 0 0 0 0 0 0 0 0 0 0 0 0 0 0 0 0 0 0 0 0 0 0 0 0 0 0 0 0 0 0 0 0 0 0 0 0 0
0 0 0 0 0 0 0 0 0 0 0 0 0 0 0 0 0 0 0 0 0 0 0 0 0 0 0 0 0 0 0 0 0 0 0 0 0 0 0 0 0 0 0
0 0 0 0 0 0 0 0 0 0 0 0 0 0 0 0 0 0 0 0 0 0 0 0 0 0 0 0 0 0 0 0 0 0 0 0 0 0 0 0 0 0 0
0 0 0 0 0 0 0 0 0 0 0 0 0 0 0 0 0 0 0 0 0 0 0 0 0 0 0 0 0 0 0 0 0 0 0 0 0 0 0 0 0 0 0
0 0 0 0 0 0 0 0 0 0 0 0 0 0 0 0 0 0 0 0 0 0 0 0 0 0 0 0 0 0 0 0 0 0 0 0 0 0 0 0 0 0 0
0 0 0 0 0 0 0 0 0 0 0 0 0 0 0 0 0 0 0 0 0 0 0 0 0 0 0 0 0 0 0 0 0 0 0 0 0 0 0 0 0 0 0
1 0 0 0 0 0 0 0 0 0 0 0 0 0 0 0 0 0 0 0 0 0 0 0 0 0 0 0 0 0 0 0 0 0 0 0 0 0 0 0 0 0 0
5 3 0 0 0 0 0 0 0 0 0 0 0 0 0 0 0 0 0 0 0 0 0 0 0 0 0 0 0 0 0 0 0 0 0 0 0 0 0 0 0 0 0
16 12 6 3 2 1 1 1 0 0 0 0 0 0 0 0 0 0 0 0 0 0 0 0 0 0 0 0 0 0 0 0 0 0 0 0 0 0 0 0 0 0 0
30 27 22 17 11 6 3 2 1 0 0 0 0 0 0 0 0 0 0 0 0 0 0 0 0 0 0 0 0 0 0 0 0 0 0 0 0 0 0 0 0 0 0
36 37 38 38 34 26 21 18 13 7 3 1 0 0 1 1 1 0 0 0 0 0 0 0 0 0 0 0 0 0 0 0 0 0 0 0 0 0 0 0 0 0 0
32 35 41 50 55 54 51 47 36 21 11 5 2 1 1 2 1 0 0 0 0 0 0 0 0 0 0 0 0 0 0 0 0 0 0 0 0 0 0 0 0 0 0
24 29 36 46 56 62 63 59 44 27 15 7 3 1 1 1 1 0 0 0 0 0 0 0 0 0 0 0 0 0 0 0 0 0 0 0 0 0 0 0 0 0 0
21 28 35 39 44 49 50 47 36 22 12 6 2 0 0 0 0 0 0 0 0 0 0 0 0 0 0 0 0 0 0 0 0 0 0 0 0 0 0 0 0 0 0
23 28 31 30 28 30 33 32 25 14 7 3 1 0 0 0 0 0 0 0 0 0 0 0 0 0 0 0 0 0 0 0 0 0 0 0 0 0 0 0 0 0 0
18 20 21 20 16 14 15 16 12 6 2 1 0 0 0 0 0 0 0 0 0 0 0 0 0 0 0 0 0 0 0 0 0 0 0 0 0 0 0 0 0 0 0
9 11 13 13 9 6 5 5 4 1 0 0 0 0 0 0 0 0 0 0 0 0 0 0 0 0 0 0 0 0 0 0 0 0 0 0 0 0 0 0 0 0 0

GEFSSE_con_prob3kmehi_024.txt.gz
EHI
0 0 1 2 3 3 3 3 3 3 3 3 3 3 3 3 3 3 3 3 3 3 3 3 3 3 3 2 1 2 3 3 2 2 1 0 0 0 0 0 0 0 0
0 0 1 2 3 3 3 3 3 3 3 3 3 3 3 3 3 3 3 3 3 3 3 3 3 3 3 2 1 1 2 2 1 1 0 0 0 0 0 0 0 0 0
0 0 1 2 3 3 3 3 3 3 3 3 3 3 3 3 3 3 3 3 3 3 2 3 3 3 2 1 0 0 1 1 0 0 0 0 0 0 0 0 0 0 0
0 0 1 3 3 3 3 3 3 3 3 3 3 3 3 3 3 3 3 3 2 1 1 1 2 2 1 1 0 0 0 0 0 0 0 0 0 0 0 0 0 0 0
0 1 2 3 3 3 3 3 3 3 3 3 3 3 3 3 3 3 2 2 1 0 0 0 1 1 0 0 0 1 1 1 1 0 0 0 1 1 1 2 1 1 1
0 1 2 3 3 3 3 3 3 3 3 3 3 3 2 2 2 1 1 1 0 0 1 1 1 0 0 0 0 1 2 2 1 0 0 0 1 2 2 2 2 2 2
0 0 1 3 3 3 3 3 3 3 3 3 3 1 1 1 1 0 0 0 0 1 2 2 2 1 0 1 1 1 1 1 1 0 0 0 1 2 1 2 3 3 3
0 0 1 2 3 3 3 3 3 3 3 3 3 1 0 0 0 0 0 0 0 1 1 2 1 1 0 1 1 0 0 0 0 0 0 0 0 0 1 2 3 3 3
0 0 0 1 2 2 3 3 3 3 3 3 3 2 1 0 0 1 1 1 0 0 0 0 0 0 1 1 1 1 0 0 0 0 0 1 2 1 0 1 3 3 3
0 0 0 0 1 1 1 2 3 3 3 3 3 3 2 1 1 1 2 2 1 1 1 1 1 1 2 2 2 2 1 0 0 0 0 2 4 2 0 1 2 3 3
1 1 0 0 0 0 0 1 1 2 3 3 3 3 3 3 2 2 2 2 2 2 2 2 2 3 3 3 3 3 2 1 0 0 1 3 4 2 1 1 3 3 3
4 3 1 1 1 0 1 1 1 2 3 3 3 3 3 3 3 3 3 3 3 3 3 3 3 3 3 3 3 2 1 1 1 0 4 7 5 2 2 3 3 3 3
5 4 3 2 2 2 2 2 2 3 3 3 3 3 3 3 3 3 3 3 3 3 3 3 3 3 3 3 3 2 1 1 1 1 6 10 7 3 3 3 3 3 3
5 4 3 3 3 3 3 3 3 3 3 3 3 3 3 3 3 2 2 2 2 3 3 3 3 3 3 3 3 3 2 2 2 2 5 7 6 3 3 3 3 3 3
8 5 4 4 3 3 3 3 3 3 3 3 3 3 3 3 2 2 3 3 3 3 3 3 3 3 3 3 3 3 3 3 3 3 4 4 4 3 3 3 3 3 3
9 6 5 5 4 4 4 3 3 4 4 4 5 6 6 5 3 3 4 4 4 3 3 3 3 3 3 3 3 4 4 4 4 4 4 4 4 4 3 3 3 3 3
11 9 8 7 7 8 8 6 5 5 7 8 11 16 17 13 9 8 5 4 5 4 4 3 3 3 3 3 4 4 6 7 7 6 5 5 5 4 4 4 3 3 3
16 19 20 18 17 18 17 14 11 12 17 23 30 36 35 25 19 16 10 6 7 7 5 4 4 3 3 3 4 4 7 11 11 8 5 5 6 4 3 4 4 3 3
23 31 39 42 41 37 34 32 30 31 35 45 53 56 52 40 29 25 18 11 9 9 7 5 5 4 3 3 4 5 7 11 11 7 4 3 4 3 3 4 5 4 3
28 38 53 63 67 65 62 61 59 53 53 61 65 64 59 51 41 34 26 19 13 10 8 6 5 4 3 3 3 4 5 6 6 4 2 1 1 1 2 4 5 5 4
30 40 56 69 78 84 85 84 79 71 67 69 69 63 56 51 45 39 32 25 18 12 8 5 4 3 3 3 3 3 2 2 2 2 1 0 0 0 1 3 5 6 7
31 37 49 62 75 84 89 89 87 82 78 77 74 64 51 42 39 35 30 24 16 10 7 5 4 3 3 3 3 2 1 0 0 1 1 0 0 0 0 1 4 7 8
35 38 44 56 68 77 82 86 87 86 84 81 75 62 46 34 27 23 20 15 9 5 4 4 3 3 3 3 2 2 1 0 0 0 1 0 0 1 0 0 3 5 7
35 40 49 57 65 71 76 80 81 82 81 77 67 54 39 23 13 10 9 6 3 1 1 2 2 3 3 3 2 2 1 1 0 0 0 0 0 0 0 0 1 3 4
25 32 43 53 58 62 68 70 69 71 69 61 49 38 27 14 5 2 1 1 0 0 1 2 3 3 3 3 3 2 1 1 0 0 0 0 0 0 0 0 1 2 2
15 20 30 42 48 53 57 58 59 61 57 45 35 28 20 10 3 1 0 0 0 1 2 3 3 3 3 4 4 2 1 1 0 0 0 0 0 0 0 0 0 1 1

GEFSSE_con_prob3kmehi_030.txt.gz
EHI
1 9 18 12 2 0 0 0 0 0 0 0 0 0 0 0 0 0 0 0 0 0 0 0 0 0 0 0 0 0 0 0 0 0 0 0 0 0 0 0 0 0 0
1 8 20 17 5 0 0 0 0 0 0 0 0 0 0 0 0 0 0 0 0 0 0 0 0 0 0 0 0 0 0 0 0 0 0 0 0 0 0 0 0 0 0
1 5 15 19 10 1 0 0 0 0 0 0 0 0 0 0 0 0 0 0 0 0 0 0 0 0 0 0 0 0 0 0 0 0 0 0 0 0 0 0 0 0 0
0 2 10 17 12 3 0 0 0 0 0 0 0 0 0 0 0 0 0 0 0 0 0 0 0 0 0 0 0 0 0 0 0 0 0 1 3 4 2 0 0 0 0
0 2 11 18 13 3 0 0 0 0 0 0 0 0 0 0 0 0 0 0 0 0 0 0 0 0 0 0 0 0 0 0 0 0 0 2 12 19 13 4 0 0 0
2 3 12 20 14 3 0 0 0 0 0 0 0 0 0 0 0 0 0 0 0 0 0 0 0 0 0 0 0 0 0 0 0 0 0 6 27 47 38 14 2 0 0
12 10 14 20 14 3 0 0 0 0 0 0 0 0 0 0 0 0 0 0 0 0 0 0 0 0 0 0 0 0 0 0 0 0 0 9 41 72 65 32 11 4 1
30 23 17 17 12 3 0 0 0 0 0 0 0 0 0 0 0 0 0 0 0 0 0 0 0 0 0 0 0 0 0 0 0 0 0 13 49 84 82 53 25 10 4
47 36 18 9 7 2 0 0 0 0 0 0 0 0 0 0 0 0 0 0 0 0 0 0 0 0 0 1 2 2 1 0 0 0 0 15 54 88 90 66 35 15 7
58 46 20 4 3 1 0 0 0 0 0 0 0 0 0 0 1 2 1 1 0 0 1 2 2 3 3 6 11 11 6 1 0 0 1 22 63 92 91 68 36 14 7
66 54 27 8 4 1 1 1 1 0 0 0 0 1 1 0 1 6 12 18 20 19 17 16 14 12 8 9 22 28 15 3 1 0 9 38 77 96 90 66 33 11 4
73 63 44 28 15 4 4 8 4 0 1 0 2 6 6 2 1 10 32 52 57 50 39 29 21 15 9 6 19 31 18 4 1 1 20 60 90 98 91 69 36 12 3
79 71 63 58 41 15 11 17 10 4 7 8 10 16 16 7 1 14 47 75 79 67 44 26 21 18 9 3 8 15 12 3 1 5 31 73 96 98 94 78 50 24 12
82 76 76 81 71 42 30 32 23 13 20 26 30 34 31 25 17 24 54 78 78 65 47 31 29 28 18 7 3 4 5 4 3 11 41 79 98 99 96 88 71 49 34
86 82 86 93 91 75 63 59 45 32 35 46 57 61 56 55 50 48 65 81 74 63 57 51 44 40 31 17 7 4 5 8 11 21 49 82 99 100 98 95 87 74 63
88 87 93 99 99 95 90 80 64 50 47 55 71 82 82 80 78 78 84 87 77 63 60 59 53 48 39 24 11 6 7 13 23 38 62 86 98 99 98 97 93 87 82
88 91 95 97 99 100 98 88 71 56 50 59 75 90 94 93 91 92 93 90 81 70 65 62 58 53 42 27 16 8 8 17 32 50 72 90 97 97 97 96 92 88 85
91 96 97 95 97 100 99 93 79 63 58 67 82 94 99 98 95 93 92 90 86 81 75 68 63 57 48 34 22 12 8 14 25 40 60 78 87 91 93 93 91 86 82
95 98 98 97 98 100 100 98 91 82 77 79 88 96 100 99 96 94 93 92 90 87 82 74 69 66 57 42 24 12 7 6 11 18 31 47 62 73 79 84 89 88 84
98 99 100 100 100 100 100 100 99 96 93 91 93 98 100 99 97 95 94 93 92 89 85 81 78 74 65 47 24 11 5 3 3 7 14 21 30 41 52 63 78 86 85
98 99 99 100 100 100 100 100 100 100 99 98 97 98 99 98 96 94 92 92 91 88 85 84 82 76 65 48 27 11 4 1 1 7 17 20 16 18 25 37 56 73 79
89 91 94 97 99 99 100 100 100 100 100 100 98 98 98 98 96 93 91 90 87 82 79 79 76 68 58 45 28 12 3 0 0 6 18 26 25 22 18 18 31 52 65
63 68 78 88 94 97 98 99 99 99 99 100 99 99 99 99 97 93 89 86 80 72 69 66 61 54 46 36 22 9 3 1 0 2 10 20 29 29 19 11 15 29 40
30 36 51 69 82 90 93 94 95 96 96 98 99 99 99 99 96 91 85 80 73 66 59 54 47 42 34 23 12 4 2 1 0 0 3 9 18 19 13 7 7 13 20
9 13 23 41 61 76 84 87 90 91 92 92 93 96 97 96 93 87 80 75 70 63 55 47 40 32 22 12 4 1 1 1 0 0 0 2 5 6 5 3 2 5 9
3 3 8 22 42 62 75 82 87 89 88 87 88 92 94 94 91 84 77 72 66 60 53 44 34 25 14 6 2 1 1 0 0 0 0 0 0 1 1 0 0 1 3

GEFSSE_con_prob3kmehi_036.txt.gz
EHI
0 13 30 26 9 2 0 0 0 0 0 0 0 0 0 0 0 0 0 0 0 0 0 0 0 0 0 0 0 0 0 0 0 0 0 0 0 0 0 0 0 0 0
1 12 30 32 18 5 0 0 0 0 0 0 0 0 0 0 0 0 0 0 0 0 0 0 0 0 0 0 0 0 0 0 0 0 0 0 0 0 0 0 0 0 0
2 8 27 40 33 15 3 0 0 0 0 0 0 0 0 0 0 0 0 0 0 0 0 0 0 0 0 0 0 0 0 0 0 0 0 0 0 0 0 0 0 0 0
3 6 24 48 49 29 9 1 0 0 0 0 0 0 0 0 0 0 0 0 0 0 0 0 0 0 0 0 0 0 0 0 0 0 0 0 0 0 0 0 0 0 0
3 7 28 55 60 41 19 5 0 0 0 0 0 0 0 0 0 0 0 0 0 0 0 0 0 0 0 0 0 0 0 0 0 0 0 0 0 0 0 0 0 0 0
5 10 33 60 65 51 30 12 3 0 0 0 0 0 0 0 0 0 0 0 0 0 0 0 0 0 0 0 0 0 0 0 0 0 0 0 0 2 6 8 6 3 2
9 15 37 64 70 59 42 22 8 1 0 0 0 0 0 0 0 0 0 0 0 0 0 0 0 0 0 0 0 0 0 0 0 0 0 0 0 6 20 29 25 18 13
11 19 38 59 66 63 53 34 16 5 1 0 0 0 0 0 0 0 0 0 0 0 0 0 0 0 0 0 0 0 0 0 0 0 0 0 0 9 31 49 51 43 36
10 20 34 44 51 55 52 41 25 10 3 1 0 0 0 0 0 0 0 0 0 0 0 0 0 0 0 0 0 0 0 0 0 0 0 0 0 8 32 58 71 68 63
11 20 29 33 36 36 35 34 28 15 6 1 0 0 0 0 0 0 0 0 0 0 0 0 0 0 0 0 0 0 0 0 0 0 0 0 0 6 29 63 84 86 82
17 21 26 29 26 20 18 20 20 13 6 2 0 0 0 0 0 0 0 0 0 0 0 0 0 0 0 0 1 0 0 0 0 0 0 0 0 5 29 66 91 94 91
23 22 24 25 20 14 11 10 8 6 3 1 0 0 0 0 0 0 0 0 0 0 0 1 1 1 0 0 0 0 0 0 0 0 0 2 5 13 36 69 90 94 93
26 23 22 22 18 12 9 6 4 1 0 0 0 0 0 0 0 0 0 0 0 0 1 1 2 2 1 0 0 0 0 0 0 0 1 5 13 28 52 75 89 92 91
34 27 21 19 15 9 5 4 4 2 0 0 0 0 0 0 0 0 0 0 1 2 4 4 4 4 3 1 0 0 0 0 0 0 1 8 20 40 63 82 91 91 88
40 33 27 23 16 9 5 5 5 4 2 1 1 1 2 2 2 1 0 1 3 7 11 11 8 5 3 1 0 0 0 0 0 0 1 6 20 42 65 84 93 91 86
48 45 40 33 24 19 17 19 20 17 12 8 7 9 12 15 15 11 8 8 10 16 21 19 12 7 3 1 0 0 0 0 0 0 0 3 13 32 57 78 88 88 85
57 57 54 46 40 37 39 43 44 40 31 22 20 24 31 38 40 35 31 27 27 32 33 25 15 8 4 1 1 0 0 0 0 1 1 2 6 17 37 62 77 82 82
59 62 63 61 60 59 60 61 60 55 44 33 29 33 44 55 61 60 57 53 50 49 42 29 18 11 6 3 2 1 0 0 0 1 2 2 2 5 17 38 58 68 71
60 61 65 68 71 73 73 70 66 59 47 35 28 29 39 53 64 70 73 71 66 56 44 31 21 14 9 6 4 2 1 0 0 0 1 1 0 0 4 15 30 42 47
57 56 58 63 68 72 75 74 71 63 53 44 36 30 32 41 54 67 76 77 70 56 42 30 21 15 11 8 5 3 2 1 0 0 0 0 0 0 0 3 9 16 21
42 42 43 47 52 57 61 63 65 64 60 58 53 43 35 35 43 56 66 70 66 54 40 29 21 15 11 9 6 4 2 1 0 0 0 0 0 0 0 0 1 4 5
23 25 26 28 30 34 39 44 50 53 55 54 52 45 37 33 37 44 50 55 55 48 38 29 20 15 12 9 6 3 1 1 0 0 0 0 0 0 0 0 0 1 1
11 12 12 12 13 14 19 26 30 33 33 33 31 30 28 27 30 35 39 42 43 39 33 26 19 15 12 9 5 3 1 0 0 0 0 0 0 0 0 0 0 0 0
4 6 7 6 5 6 9 11 13 13 13 13 13 14 16 19 23 27 31 32 33 31 27 22 17 14 12 9 5 2 1 0 0 0 0 0 0 0 0 0 0 0 0
4 7 10 9 6 6 6 4 3 3 4 4 4 4 7 11 16 20 22 23 23 24 22 17 14 13 12 9 5 2 0 0 0 0 0 0 0 0 0 0 0 0 0
6 11 14 13 9 6 5 3 2 1 1 1 0 0 3 7 13 17 18 16 17 19 18 14 12 13 12 9 5 1 0 0 0 0 0 0 0 0 0 0 0 0 0

GEFSSE_con_prob3kmehi_042.txt.gz
EHI
0 3 7 5 1 0 0 0 1 2 2 2 1 0 0 0 0 0 0 0 0 0 0 0 0 0 0 0 0 0 0 0 0 0 0 0 0 0 0 0 0 0 0
0 2 8 8 4 1 1 0 0 1 1 1 1 0 0 0 0 0 0 0 0 0 0 0 0 0 0 0 0 0 0 0 0 0 0 0 0 0 0 0 0 0 0
0 1 6 10 7 3 2 1 0 0 0 0 0 0 0 0 0 0 0 0 0 0 0 0 0 0 0 0 0 0 0 0 0 0 0 0 0 0 0 0 0 0 0
0 0 5 12 12 7 6 5 3 1 0 0 0 0 0 0 0 0 0 0 0 0 0 0 0 0 0 0 0 0 0 0 0 0 0 0 0 0 0 0 0 0 0
0 0 7 17 18 13 12 11 7 4 2 1 0 0 0 0 0 0 0 0 0 0 0 0 0 0 0 0 0 0 0 0 0 0 0 0 0 0 0 0 0 0 0
0 0 9 22 26 23 22 19 15 10 5 2 1 0 0 0 0 0 0 0 0 0 0 0 0 0 0 0 0 0 0 0 0 0 0 0 0 0 0 0 0 0 0
0 0 11 28 35 33 31 28 24 17 8 3 1 0 0 0 0 0 0 0 0 0 0 0 0 0 0 0 0 0 0 0 0 0 0 0 0 0 0 0 0 0 1
0 0 10 27 37 37 36 33 30 22 11 4 1 0 0 0 0 0 0 0 0 0 0 0 0 0 0 0 0 0 0 0 0 0 0 0 0 0 0 0 0 0 1
0 1 7 17 26 30 31 31 29 24 15 8 3 1 1 0 0 0 0 0 0 0 0 0 0 0 0 0 0 0 0 0 0 0 0 0 0 0 0 0 0 0 1
0 1 5 8 12 16 19 24 27 25 20 13 7 3 2 1 0 0 0 0 0 0 0 0 0 0 0 0 0 0 0 0 0 0 0 0 0 0 0 0 0 0 0
0 1 2 4 5 6 9 15 21 22 20 14 9 5 3 2 1 0 0 0 0 0 0 0 0 0 0 0 0 0 0 0 0 0 0 0 0 0 0 0 0 0 0
0 0 0 1 3 5 8 10 13 14 13 10 7 5 4 3 2 1 0 0 0 0 0 0 0 0 0 0 0 0 0 0 0 0 0 0 0 0 0 0 0 0 0
0 0 1 1 2 6 9 10 11 10 8 7 6 5 4 3 3 2 1 0 0 0 0 0 0 0 0 0 0 0 0 0 0 0 0 0 0 0 0 0 0 0 0
0 2 3 4 5 7 8 10 12 12 9 7 6 6 6 5 3 2 1 0 0 0 0 0 0 0 1 1 0 0 0 0 0 0 0 0 0 0 0 0 0 0 0
4 5 7 8 8 9 9 9 9 10 9 7 5 6 7 7 5 3 2 1 0 0 0 0 1 1 2 2 1 1 1 1 0 0 0 0 0 0 0 0 1 1 2
9 9 9 9 9 11 11 9 7 7 7 5 3 3 6 8 7 5 2 1 1 2 3 3 4 5 4 3 2 1 1 0 0 0 0 0 0 0 0 1 2 4 4
15 13 11 9 9 12 12 10 7 6 5 4 2 3 3 4 5 4 2 3 6 8 10 11 10 10 9 4 2 1 0 0 0 0 0 0 0 0 0 1 2 4 5
22 20 16 14 14 15 14 11 9 8 6 4 4 4 4 4 5 5 5 9 15 19 21 20 18 16 11 6 2 1 0 0 0 0 0 0 0 0 0 0 1 3 4
27 24 21 18 18 17 15 13 12 11 9 8 7 6 6 6 7 8 12 19 26 29 29 28 25 19 14 9 4 2 1 1 1 1 1 0 0 0 0 0 1 2 3
23 21 18 17 16 16 16 16 16 14 11 10 10 9 9 7 7 11 17 23 31 36 35 33 27 19 16 14 8 3 3 3 3 3 2 1 0 0 0 0 1 2 3
14 13 12 12 13 15 17 17 16 14 12 12 12 13 13 10 8 11 16 20 27 34 35 32 26 18 16 16 11 5 3 3 3 3 3 1 0 0 0 0 1 2 2
5 6 7 8 9 11 12 13 12 11 10 10 11 12 12 10 8 9 11 15 19 25 27 26 23 17 14 13 10 6 3 2 2 2 2 1 0 0 0 0 1 1 1
0 1 2 3 4 5 5 5 5 5 5 5 5 4 4 4 4 5 6 8 12 15 17 18 18 15 11 9 8 6 3 2 1 0 0 0 0 0 0 0 0 0 0
0 0 0 0 1 1 1 1 1 1 1 1 0 0 0 0 1 1 2 3 6 9 10 11 11 10 8 7 6 5 4 3 2 1 0 0 0 0 0 0 0 0 0
0 0 0 0 0 0 0 0 0 0 0 0 0 0 0 0 0 0 0 1 3 6 7 7 6 5 5 5 5 5 4 3 2 1 0 0 0 0 0 0 0 0 0
0 0 1 1 1 0 0 0 0 0 0 0 0 0 0 0 0 0 0 0 2 4 6 5 4 4 4 4 5 5 5 4 2 0 0 0 0 0 0 0 0 0 0

GEFSSE_con_prob3kmehi_048.txt.gz
EHI
3 4 2 0 0 0 0 0 1 2 4 4 3 1 0 0 0 0 0 0 0 0 0 0 0 0 0 0 0 0 0 0 0 0 0 0 0 0 0 0 0 0 0
3 5 3 0 0 0 0 1 2 3 4 5 4 1 0 0 0 0 0 0 0 0 0 0 0 0 0 0 0 0 0 0 0 0 0 0 0 0 0 0 0 0 0
4 6 4 0 0 0 1 3 5 6 6 5 3 1 0 0 0 0 0 0 0 0 0 0 0 0 0 0 0 0 0 0 0 0 0 0 0 0 0 0 0 0 0
4 6 4 1 0 1 2 5 7 9 8 5 2 1 0 0 0 0 0 0 0 0 0 0 0 0 0 0 0 0 0 0 0 0 0 0 0 0 0 0 0 0 0
2 4 5 2 0 1 2 4 7 9 9 7 4 2 1 1 1 0 0 0 0 0 0 0 0 0 0 0 0 0 0 0 0 0 0 0 0 1 0 0 0 0 0
0 3 6 4 1 0 1 2 4 8 10 9 7 5 4 3 2 1 1 0 0 0 0 0 0 0 0 0 0 0 0 0 0 0 0 0 1 2 1 0 0 0 0
0 3 7 6 1 0 0 2 4 8 12 12 10 8 7 5 3 2 1 0 0 0 0 0 0 0 0 0 0 0 0 0 0 0 0 0 1 2 1 0 0 0 0
0 3 7 5 1 0 1 3 6 9 11 12 12 11 9 7 3 1 1 0 0 0 0 0 0 0 0 0 0 0 0 0 0 0 0 1 3 3 1 0 0 0 0
0 1 3 2 0 0 0 2 4 6 7 8 10 11 10 8 5 3 2 1 0 0 0 0 0 0 0 0 0 0 0 0 0 0 0 6 12 8 1 0 0 0 0
0 0 0 0 0 0 0 0 1 1 2 2 4 6 7 6 6 5 4 3 2 1 0 0 0 0 0 0 1 1 1 0 0 0 0 12 22 13 1 0 0 0 0
0 0 0 0 0 0 0 0 0 0 1 1 1 2 2 2 3 3 5 7 6 2 1 0 0 0 0 1 2 2 1 0 0 0 4 18 25 12 1 0 0 0 0
0 0 0 0 0 0 0 0 0 1 2 3 3 2 1 0 1 1 5 8 6 2 1 1 1 0 0 2 4 3 1 0 0 0 8 23 22 8 0 0 0 0 0
0 0 0 0 0 1 1 0 0 1 4 5 4 3 2 1 2 2 4 6 4 2 1 2 2 1 2 4 5 2 0 0 0 1 8 18 15 4 0 0 0 0 0
1 0 0 0 1 2 3 2 2 3 5 5 5 4 3 2 3 3 5 5 3 2 2 2 2 3 4 5 4 2 1 1 1 2 6 11 9 3 0 0 0 0 0
2 2 1 1 3 6 9 9 9 7 5 5 4 3 3 3 4 5 7 8 6 5 6 6 6 7 9 8 6 4 3 2 2 3 6 8 8 5 2 0 0 0 0
3 4 4 5 8 13 16 16 13 9 6 5 4 4 4 5 7 9 12 14 13 12 15 16 15 18 21 19 15 12 8 5 6 8 8 9 11 8 4 1 0 0 1
6 7 7 8 12 18 21 20 15 11 7 6 7 7 6 7 11 15 17 19 22 24 28 30 29 33 35 32 28 23 18 14 13 14 14 15 14 9 7 5 3 1 2
14 14 12 11 14 19 24 23 18 15 12 10 11 12 10 9 13 18 19 21 27 32 37 39 41 45 47 45 41 36 30 24 19 16 16 17 15 11 11 11 8 4 3
23 22 20 18 17 16 19 19 17 15 13 12 14 15 14 12 13 16 18 19 23 31 37 41 48 53 56 54 48 42 37 31 24 17 13 13 13 13 14 14 12 7 5
31 29 25 21 15 9 8 10 11 10 8 8 10 11 11 10 10 11 13 12 14 21 29 37 44 50 56 57 49 42 38 33 28 21 14 10 9 10 11 12 12 10 8
35 31 23 15 9 4 2 4 6 5 3 2 3 4 4 4 4 5 7 7 9 13 19 26 33 40 48 53 50 43 36 33 29 24 18 12 7 6 7 9 12 13 12
36 28 17 10 5 3 2 2 3 4 3 2 2 2 1 0 0 1 3 4 5 8 9 13 20 27 36 46 50 45 37 32 29 24 19 15 10 8 8 9 12 13 13
29 22 12 8 7 6 4 4 5 6 5 4 4 3 1 0 0 0 1 1 2 3 4 5 11 17 24 35 44 45 40 34 29 23 17 15 14 12 10 9 9 9 9
16 12 8 8 11 13 12 11 10 9 6 4 3 3 1 0 0 0 0 0 0 1 1 1 4 9 15 23 33 38 36 33 29 21 15 13 14 14 12 9 7 6 6
4 4 5 9 17 23 24 21 18 13 9 6 5 4 3 2 0 0 0 0 0 0 0 0 1 4 9 14 22 27 30 29 24 17 11 11 11 11 12 10 9 8 7
1 2 4 12 23 31 31 28 24 17 13 11 9 7 5 3 1 0 0 0 0 0 0 0 0 2 5 10 17 22 25 25 20 11 8 9 8 9 11 11 10 10 9

GEFSSE_con_prob3kmehi_054.txt.gz
EHI
24 27 34 25 6 0 0 0 0 0 0 0 0 0 0 0 0 0 0 0 0 0 0 0 0 0 0 0 0 0 0 0 0 0 0 0 0 0 0 0 0 0 0
29 27 32 25 7 1 0 0 0 0 0 0 0 0 0 0 0 0 0 0 0 0 0 0 0 0 0 0 0 0 0 0 0 0 0 0 0 0 0 0 0 0 0
25 20 23 21 9 1 0 0 0 0 0 0 0 0 0 0 0 0 0 0 0 0 0 0 0 0 0 0 0 0 0 0 0 0 0 0 0 0 0 0 0 0 0
13 10 15 18 9 1 0 0 0 0 0 0 0 0 0 0 0 0 0 0 0 0 0 0 0 0 0 0 0 0 0 0 0 0 0 0 0 1 1 0 0 0 0
4 6 13 16 8 1 0 0 0 0 0 0 0 0 0 0 0 0 0 0 0 0 0 0 0 0 0 0 0 0 0 0 0 0 0 1 4 6 4 1 0 0 0
4 6 12 13 7 1 0 0 0 0 0 0 0 0 0 0 0 0 0 0 0 0 0 0 0 0 0 0 0 0 0 0 0 0 0 4 15 22 16 6 2 0 0
15 14 12 12 8 1 0 0 0 0 0 0 0 0 0 0 0 0 0 0 0 0 0 0 0 0 0 0 0 0 0 0 0 0 0 11 35 50 38 19 8 2 1
34 26 13 8 6 1 0 0 0 0 0 0 0 0 0 0 0 0 0 0 0 0 0 0 0 0 0 0 1 1 1 0 0 0 0 19 55 74 61 37 18 6 2
50 37 14 3 2 0 0 0 0 0 0 0 0 0 0 0 0 1 1 1 0 0 1 1 1 1 1 2 3 4 2 1 0 0 1 25 67 86 74 53 29 11 3
52 39 16 2 1 0 1 1 1 0 0 0 1 1 1 0 2 7 10 9 6 4 5 6 5 5 5 6 7 7 4 2 0 0 5 33 74 91 82 66 41 17 5
40 33 19 10 6 2 6 9 6 1 2 2 5 9 9 4 4 12 23 28 27 24 22 21 17 13 10 8 11 14 9 3 0 0 12 47 82 93 88 75 52 25 11
24 22 23 25 17 4 12 22 14 9 15 15 14 24 28 19 9 12 30 48 52 48 42 35 27 18 11 6 13 25 19 6 1 2 23 62 90 94 89 76 56 33 17
15 14 24 37 28 11 16 26 20 20 34 37 34 42 48 41 24 16 34 58 65 59 49 39 31 22 12 7 14 28 26 11 4 10 36 72 91 92 86 72 55 37 24
19 18 30 49 45 26 21 25 23 26 40 51 59 63 63 59 43 34 47 64 67 62 52 41 34 29 21 14 14 21 23 16 12 21 48 76 88 87 82 69 54 41 31
30 31 44 63 66 53 43 38 31 33 42 55 69 77 74 70 62 56 64 70 66 61 55 43 36 34 30 23 16 17 22 21 20 31 52 73 83 84 79 68 57 46 39
41 46 59 74 81 79 71 59 44 41 49 59 72 81 81 80 77 73 72 71 63 55 50 43 37 35 36 31 24 23 26 26 29 39 53 65 77 81 77 70 62 55 50
58 67 73 76 84 90 84 71 55 48 55 69 78 84 86 86 83 75 70 67 61 55 51 46 40 38 37 32 30 29 32 33 36 43 51 59 68 73 73 71 67 63 59
79 86 83 76 83 90 85 73 60 55 61 71 79 84 85 80 72 66 62 59 57 55 52 45 40 40 36 30 29 30 34 39 39 40 45 51 57 62 65 67 66 63 61
92 94 89 83 84 86 82 70 59 56 57 58 65 71 69 59 50 47 47 46 45 46 44 37 37 40 38 30 24 24 31 38 41 39 39 44 50 54 54 56 58 57 54
91 92 91 88 85 80 73 64 56 51 44 39 45 50 43 31 25 24 27 30 31 32 31 29 29 31 32 28 18 15 22 30 38 42 41 41 46 48 46 48 51 51 48
85 85 85 84 79 70 63 57 52 46 33 24 28 32 25 13 9 10 12 16 18 18 18 18 17 17 19 21 17 12 13 19 28 39 45 46 45 44 42 43 46 47 47
77 76 76 76 70 61 53 45 41 37 25 17 21 26 21 12 7 7 8 8 9 9 9 9 8 7 8 11 15 14 11 13 19 29 41 46 44 42 38 35 39 44 46
66 66 70 72 67 60 52 41 36 34 26 22 26 31 28 18 12 10 9 7 7 6 5 4 3 2 3 4 9 14 13 12 14 20 28 33 35 36 31 28 32 38 40
57 61 68 71 69 65 59 53 48 44 40 40 43 45 39 27 18 16 15 14 13 10 5 2 1 1 1 1 4 8 10 9 9 12 15 19 24 28 27 26 29 32 33
45 53 61 66 68 67 66 66 64 61 59 59 59 58 51 39 30 26 26 27 25 18 10 6 4 1 0 0 1 3 4 5 6 6 7 11 16 20 23 24 25 27 29
34 41 52 59 64 65 66 68 70 71 70 67 65 64 57 49 41 35 34 37 34 25 16 11 7 2 0 0 1 2 2 3 4 4 4 5 8 12 17 21 22 24 27